Terminal Aerodrome Forecast
Issued by NWS

Home | Current Version | Previous Version | Text Only | Print | Product List | Glossary On
Versions: 1 2 3 4 5 6 7 8 9 10 11 12 13
000
FTPQ31 PGUM 010300 AAA
TAFKWA
TAF AMD
PKWA 010335Z 0104/0124 12008KT P6SM VCSH BKN014 BKN035=

USA.gov is the U.S. government's official web portal to all federal, state and local government web resources and services.